[[{"header":{"parameterUnit":"m.s-1","parameterCategory":2,"la1":30.2991,"la2":30.254,"lo1":-89.0895,"lo2":-89.0444,"dy":0.0017,"dx":0.0017,"nx":28,"ny":28,"refTime":"2024-05-28T09:00:00:Z","depth":"0","parameterNumber":2,"parameterNumberName":"U-component_of_CURRENTS"},"data":[0,0,0,0,0,0,0,0,0,0,0,0,0,0,0,0,0,0,0,0,0,0,0,0,0,0,0,0,0,0,0,0,0,0,0,0,0,0,0,0,0,0,0,0,0,0,0,0,0,0,0,0,0,0,0,0,0,0,0.2276,0.2277,0,0.2425,0.2427,0.2429,0.2507,0.2507,0.2507,0.2508,0.262,0.2623,0.2626,0,0,0,0,0,0,0,0,0,0,0,0,0,0.2135,0.2136,0.2276,0.2278,0.228,0.2425,0.2427,0.2429,0.2507,0.2507,0.2507,0.2508,0.2619,0.2622,0.2626,0,0,0,0,0,0,0,0,0,0,0,0,0,0.223,0.2137,0.2275,0.2337,0.2344,0.2425,0.2427,0.243,0.2507,0.2507,0.2507,0.2508,0.2618,0.2622,0.2626,0.2645,0,0,0.2639,0.2641,0,0,0,0,0,0,0,0,0.2224,0.2235,0.2326,0.2333,0.2341,0.2449,0.2419,0.25,0.2507,0.2443,0.2508,0.2508,0.256,0.2569,0.2595,0.265,0.2655,0.2639,0.2642,0.2644,0.2645,0,0,0,0,0,0,0,0.2217,0.2229,0.2333,0.2328,0.2337,0.2384,0.2397,0.2435,0.2496,0.2449,0.2455,0.2474,0.2564,0.2591,0.2598,0.2656,0.2639,0.2643,0.2645,0.2647,0.2749,0.275,0,0,0,0,0,0,0.2198,0.2222,0.2329,0.2338,0.2284,0.2386,0.2401,0.2413,0.2497,0.2511,0.2474,0.2477,0.2584,0.2593,0.2602,0.2659,0.2644,0.2648,0.265,0.2749,0.2749,0.275,0,0,0,0,0,0,0.2194,0.2205,0.2323,0.2285,0.2304,0.2388,0.2401,0.2416,0.245,0.2516,0.2529,0.2494,0.2584,0.2596,0.2649,0.2663,0.2649,0.2653,0.2749,0.2749,0.275,0.2753,0,0,0,0,0,0,0.2189,0.2203,0.221,0.2284,0.2305,0.2387,0.2402,0.2418,0.2461,0.2467,0.2537,0.2548,0.2585,0.2643,0.2654,0.2668,0.2656,0.2749,0.2749,0.2749,0.2752,0.2753,0.2754,0,0,0,0,0,0.2183,0.2209,0.2209,0.2223,0.231,0.2388,0.2404,0.2464,0.2461,0.2491,0.253,0.2546,0.2652,0.2647,0.2659,0.2675,0.2748,0.2749,0.2749,0.2752,0.2753,0.2754,0,0,0,0,0,0,0.2168,0.2221,0.2223,0.2266,0.2321,0.2402,0.2443,0.2461,0.2515,0.2518,0.2559,0.2575,0.2626,0.2644,0.2637,0.2703,0.2699,0.2702,0.2696,0.2698,0.2698,0.2725,0.266,0,0,0,0,0,0.2158,0.2183,0.2242,0.2277,0.2304,0.2362,0.24,0.2434,0.2489,0.2514,0.2555,0.2594,0.2636,0.2661,0.2705,0.2743,0.2802,0.2756,0.2756,0.2757,0.2785,0.2882,0.2896,0.2751,0.2751,0.2751,0,0,0.216,0.2195,0.2208,0.2274,0.2321,0.2374,0.2387,0.2451,0.2488,0.2516,0.2576,0.2604,0.2647,0.2699,0.2721,0.2717,0.2827,0.2758,0.2758,0.2787,0.2885,0.2899,0.2912,0.2752,0.2752,0.2752,0,0,0.2197,0.2208,0.2247,0.2291,0.236,0.2392,0.2403,0.2474,0.2503,0.2554,0.2581,0.2624,0.2678,0.2726,0.2751,0.2779,0.283,0.277,0.2799,0.2891,0.2905,0.2918,0.3009,0.303,0.2767,0.2767,0.2767,0,0.2197,0.2248,0.2275,0.2332,0.2368,0.2394,0.2446,0.2482,0.2556,0.2583,0.2574,0.2672,0.2701,0.2777,0.2784,0.2786,0.2844,0.2792,0.2896,0.291,0.2923,0.3013,0.3036,0.2767,0.2767,0.2767,0.2767,0,0.2268,0.2306,0.2341,0.24,0.2442,0.2494,0.2536,0.2569,0.258,0.2616,0.2684,0.2726,0.279,0.2787,0.2797,0.289,0.2904,0.289,0.2899,0.2938,0.303,0.3054,0.2768,0.2768,0.2767,0.2767,0,0,0.2267,0.2366,0.2377,0.2409,0.2477,0.2518,0.257,0.2631,0.267,0.2712,0.2776,0.283,0.2848,0.2878,0.289,0.2956,0.3085,0.2958,0.2963,0.3059,0.3301,0.3311,0.3339,0.3089,0.3093,0.3096,0.3327,0,0.2311,0.2412,0.2448,0.2524,0.2571,0.26,0.2646,0.2698,0.2732,0.2797,0.2837,0.2902,0.2882,0.291,0.2978,0.306,0.3149,0.3025,0.3241,0.3248,0.3261,0.3367,0.3225,0.342,0.3351,0.3355,0.3358,0,0.2365,0.242,0.2505,0.2576,0.2599,0.2639,0.2704,0.2752,0.2835,0.2869,0.2937,0.2972,0.3077,0.3043,0.3239,0.3159,0.3246,0.3302,0.3312,0.3345,0.3304,0.337,0.3467,0.3318,0.3396,0.3393,0.339,0,0.235,0.2453,0.2513,0.2542,0.2629,0.2661,0.2697,0.2773,0.2816,0.2921,0.2964,0.3086,0.3153,0.3276,0.3381,0.333,0.3597,0.3542,0.3644,0.3645,0.3583,0.3571,0.3574,0.3716,0.3716,0.3715,0.3715,0,0.2376,0.2422,0.2508,0.2542,0.2593,0.2656,0.2717,0.2769,0.286,0.2916,0.2998,0.3078,0.3216,0.3358,0.3448,0.3637,0.3668,0.3701,0.3725,0.3576,0.3563,0.3476,0.3393,0.3724,0.3722,0.372,0.3719,0,0.2352,0.242,0.2481,0.2568,0.259,0.2621,0.2704,0.2747,0.2839,0.292,0.2956,0.3117,0.3316,0.3458,0.3683,0.3732,0.3795,0.3954,0.3772,0.3771,0.3702,0.3625,0.3628,0.353,0.4119,0.4121,0.4123,0,0.235,0.2387,0.2471,0.2492,0.2528,0.2585,0.2617,0.2719,0.2767,0.2935,0.2972,0.3193,0.3344,0.3687,0.3838,0.4055,0.3884,0.4023,0.3904,0.3728,0.366,0.3498,0.3401,0.3822,0.3821,0.382,0.3819,0,0.2327,0.236,0.2402,0.2448,0.2484,0.2526,0.2586,0.2629,0.2747,0.2844,0.3012,0.316,0.3483,0.3662,0.393,0.4025,0.3796,0.4016,0.3879,0.3491,0.3271,0.3176,0.3635,0.3812,0.3813,0.3813,0.3814,0.3814,0.2291,0.2306,0.2363,0.24,0.2434,0.2469,0.249,0.2573,0.2673,0.2803,0.2991,0.3174,0.3409,0.379,0.3848,0.3831,0.3825,0.3734,0.3681,0.3554,0.3368,0.3827,0.3993,0.3994,0.3996,0.3997,0.3998,0,0.2252,0.2285,0.2312,0.2358,0.2367,0.2411,0.2464,0.2478,0.2573,0.2736,0.2908,0.3145,0.3314,0.3453,0.3572,0.3489,0.3322,0.3382,0.3075,0.3018,0.3478,0.3368,0.3348,0.3348,0.3348,0.3349,0.3349,0.3349,0.2237,0.2263,0.2287,0.2297,0.2314,0.2312,0.2335,0.2362,0.2451,0.2591,0.2717,0.2891,0.3095,0.3226,0.3164,0.3093,0.2822,0.2749,0.2731,0.2984,0.3008,0.3032,0.2907,0.2792,0.2791,0.214,0.2134,0.213]},{"header":{"parameterUnit":"m.s-1","parameterCategory":2,"la1":30.2991,"la2":30.254,"lo1":-89.0895,"lo2":-89.0444,"dy":0.0017,"dx":0.0017,"nx":28,"ny":28,"refTime":"2024-05-28T09:00:00:Z","depth":"0","parameterNumber":3,"parameterNumberName":"V-component_of_CURRENTS"},"data":[0,0,0,0,0,0,0,0,0,0,0,0,0,0,0,0,0,0,0,0,0,0,0,0,0,0,0,0,0,0,0,0,0,0,0,0,0,0,0,0,0,0,0,0,0,0,0,0,0,0,0,0,0,0,0,0,0,0,-0.023,-0.0231,0,-0.0346,-0.0347,-0.0348,-0.0394,-0.0394,-0.0394,-0.0394,-0.0468,-0.047,-0.0472,0,0,0,0,0,0,0,0,0,0,0,0,0,-0.0073,-0.0075,-0.023,-0.0231,-0.0233,-0.0345,-0.0347,-0.0348,-0.0394,-0.0394,-0.0394,-0.0394,-0.0467,-0.047,-0.0472,0,0,0,0,0,0,0,0,0,0,0,0,0,-0.0158,-0.0076,-0.0229,-0.0271,-0.0276,-0.0345,-0.0347,-0.0349,-0.0394,-0.0394,-0.0394,-0.0393,-0.0466,-0.0469,-0.0472,-0.0496,0,0,-0.0482,-0.0483,0,0,0,0,0,0,0,0,-0.0154,-0.0164,-0.0263,-0.0268,-0.0274,-0.0357,-0.0319,-0.0396,-0.0394,-0.0347,-0.0394,-0.0393,-0.0428,-0.0434,-0.0455,-0.0499,-0.0502,-0.0482,-0.0484,-0.0486,-0.0486,0,0,0,0,0,0,0,-0.0148,-0.0159,-0.0274,-0.0265,-0.0271,-0.0292,-0.0303,-0.0334,-0.0385,-0.0351,-0.0355,-0.0371,-0.043,-0.0452,-0.0457,-0.0504,-0.0482,-0.0485,-0.0487,-0.0488,-0.0577,-0.0577,0,0,0,0,0,0,-0.0136,-0.0154,-0.027,-0.0277,-0.0214,-0.0295,-0.0308,-0.0329,-0.0386,-0.0395,-0.0371,-0.0373,-0.0446,-0.0453,-0.0459,-0.0471,-0.0486,-0.0489,-0.049,-0.0576,-0.0577,-0.0577,0,0,0,0,0,0,-0.0132,-0.0146,-0.0266,-0.0219,-0.0236,-0.0298,-0.0321,-0.0331,-0.0357,-0.0402,-0.041,-0.0387,-0.0446,-0.0455,-0.0487,-0.0474,-0.049,-0.0493,-0.0576,-0.0576,-0.0577,-0.0506,0,0,0,0,0,0,-0.0128,-0.0144,-0.0155,-0.0219,-0.0238,-0.031,-0.0322,-0.0334,-0.0368,-0.0371,-0.0418,-0.0425,-0.0447,-0.0482,-0.049,-0.0479,-0.0495,-0.0575,-0.0576,-0.0577,-0.0507,-0.0504,-0.0501,0,0,0,0,0,-0.0122,-0.0139,-0.0154,-0.0169,-0.0252,-0.0311,-0.0323,-0.0364,-0.0369,-0.0385,-0.041,-0.0424,-0.0493,-0.0485,-0.0494,-0.0484,-0.0575,-0.0576,-0.0577,-0.0509,-0.0505,-0.0501,0,0,0,0,0,0,-0.0077,-0.0148,-0.0165,-0.0203,-0.0253,-0.0319,-0.0339,-0.0365,-0.04,-0.0396,-0.0432,-0.0441,-0.0462,-0.0491,-0.0482,-0.0515,-0.0536,-0.0538,-0.0481,-0.0477,-0.0474,-0.0426,-0.0498,0,0,0,0,0,-0.0072,-0.0102,-0.017,-0.0198,-0.0222,-0.0279,-0.0307,-0.0335,-0.0376,-0.0392,-0.0422,-0.0452,-0.0475,-0.049,-0.0519,-0.054,-0.0522,-0.0542,-0.0539,-0.0535,-0.0505,-0.046,-0.0448,-0.0581,-0.0581,-0.0581,0,0,-0.006,-0.0103,-0.0119,-0.019,-0.0229,-0.0257,-0.0295,-0.0336,-0.0348,-0.0393,-0.0412,-0.0442,-0.0479,-0.0497,-0.051,-0.0519,-0.0494,-0.0537,-0.0533,-0.0504,-0.046,-0.0446,-0.0434,-0.0581,-0.0581,-0.0581,0,0,-0.0051,-0.0091,-0.0113,-0.015,-0.0211,-0.0244,-0.0254,-0.0318,-0.0336,-0.0368,-0.0391,-0.0404,-0.0464,-0.0467,-0.0481,-0.0479,-0.0477,-0.0507,-0.0448,-0.0405,-0.0392,-0.0381,-0.0351,-0.0337,-0.0505,-0.0505,-0.0505,0,-0.0034,-0.0069,-0.0127,-0.0154,-0.0171,-0.0232,-0.0244,-0.0276,-0.0338,-0.033,-0.0365,-0.0398,-0.0437,-0.042,-0.0427,-0.0464,-0.0447,-0.0455,-0.0395,-0.0383,-0.0372,-0.0345,-0.033,-0.0502,-0.0502,-0.0502,-0.0503,0,-0.0044,-0.0065,-0.0079,-0.0124,-0.0151,-0.0173,-0.022,-0.0235,-0.026,-0.0279,-0.0279,-0.0327,-0.0331,-0.0362,-0.0398,-0.0348,-0.0365,-0.0391,-0.0391,-0.0353,-0.0329,-0.0315,-0.0497,-0.0498,-0.0499,-0.05,0,0,-0.0024,-0.0074,-0.0077,-0.0071,-0.0131,-0.0145,-0.0155,-0.0167,-0.0134,-0.0193,-0.0148,-0.0204,-0.0211,-0.0226,-0.0267,-0.0247,-0.0178,-0.0288,-0.0287,-0.0233,-0.0085,-0.013,-0.012,-0.0191,-0.0188,-0.0186,-0.0101,0,-0.0011,-0.0027,-0.0061,-0.0051,-0.0055,-0.0087,-0.0078,-0.0088,-0.0097,-0.007,-0.01,-0.0083,-0.0166,-0.0156,-0.0148,-0.0166,-0.0137,-0.0199,-0.0151,-0.0149,-0.0172,-0.0104,-0.0097,-0.0023,-0.0087,-0.0085,-0.0084,0,-0.0011,-0.0014,-0.0005,0.0017,0.0014,0.002,0.0061,0.0059,0.0081,0.008,0.0095,0.007,0.0089,0.0012,0.0033,-0.0004,-0.0028,-0.0051,-0.0049,-0.0096,-0.0167,-0.0073,0.0004,-0.0184,-0.0062,-0.0064,-0.0066,0,0.0041,0.0033,0.0056,0.0054,0.0058,0.0085,0.0096,0.0118,0.0151,0.0194,0.0239,0.0237,0.0262,0.0232,0.0158,0.0113,0.0183,0.0118,0.006,0.0056,0.0071,0.0062,-0.0001,0.0164,0.0164,0.0163,0.0163,0,0.0068,0.0091,0.0092,0.0107,0.0171,0.0154,0.0232,0.0246,0.0295,0.0372,0.0334,0.0412,0.0322,0.0328,0.0241,0.0201,0.0257,0.0107,0.0091,0.0088,0.0081,-0.0078,-0.0166,0.0166,0.0166,0.0165,0.0165,0,0.0114,0.0105,0.0146,0.0174,0.0194,0.0244,0.0307,0.037,0.0408,0.0512,0.0536,0.0571,0.0591,0.0486,0.0454,0.0329,0.0198,0.0249,0.0238,0.0219,-0.0044,-0.0127,-0.0143,-0.0201,0.0212,0.0211,0.0211,0,0.0134,0.0157,0.0204,0.0242,0.0259,0.0327,0.0381,0.0422,0.0497,0.0624,0.0696,0.0747,0.0824,0.0743,0.0539,0.0404,0.0239,0.0278,0.0187,-0.0027,-0.013,-0.0195,-0.0247,0.0233,0.0233,0.0233,0.0233,0,0.019,0.0205,0.0241,0.0318,0.038,0.0459,0.0544,0.0625,0.07,0.0821,0.1007,0.1092,0.0997,0.0896,0.0646,0.0507,0.0153,0.0269,0.0076,-0.0083,-0.0176,-0.025,0.0122,0.0232,0.0232,0.0232,0.0232,0.0232,0.0241,0.0283,0.0333,0.0414,0.0487,0.0609,0.0714,0.083,0.1003,0.1225,0.1256,0.1436,0.1168,0.0859,0.0622,0.0137,0.0164,-0.0012,-0.0081,-0.0117,-0.0216,0.0137,0.0197,0.0197,0.0197,0.0196,0.0196,0,0.0318,0.0361,0.043,0.054,0.0648,0.0668,0.0841,0.0976,0.1228,0.1423,0.1613,0.1579,0.1252,0.0834,0.0207,-0.0144,-0.0275,-0.0347,-0.0439,-0.0465,-0.0117,-0.0168,-0.0218,-0.0218,-0.0218,-0.0218,-0.0217,-0.0217,0.0364,0.0447,0.0485,0.0676,0.076,0.0939,0.1062,0.1264,0.1441,0.1737,0.186,0.1911,0.1557,0.0445,-0.0349,-0.0534,-0.0757,-0.0792,-0.0908,-0.0712,-0.0687,-0.0664,-0.0736,-0.0905,-0.0905,-0.1222,-0.1225,-0.1228]}],[{"header":{"parameterUnit":"m.s-1","parameterCategory":2,"la1":30.2991,"la2":30.254,"lo1":-89.0895,"lo2":-89.0444,"dy":0.0017,"dx":0.0017,"nx":28,"ny":28,"refTime":"2024-05-28T09:00:00:Z","depth":"2","parameterNumber":2,"parameterNumberName":"U-component_of_CURRENTS"},"data":[0,0,0,0,0,0,0,0,0,0,0,0,0,0,0,0,0,0,0,0,0,0,0,0,0,0,0,0,0,0,0,0,0,0,0,0,0,0,0,0,0,0,0,0,0,0,0,0,0,0,0,0,0,0,0,0,0,0,0.2093,0.2091,0,0.1911,0.1908,0.1905,0.1822,0.1823,0.1824,0.1825,0.1747,0.1744,0.1741,0,0,0,0,0,0,0,0,0,0,0,0,0,0.2062,0.2064,0.2093,0.2091,0.209,0.1911,0.1907,0.1904,0.1822,0.1823,0.1825,0.1826,0.1748,0.1744,0.1741,0,0,0,0,0,0,0,0,0,0,0,0,0,0.1989,0.2065,0.2093,0.2035,0.2028,0.1912,0.1907,0.1903,0.1822,0.1823,0.1825,0.1827,0.1749,0.1745,0.174,0.1678,0,0,0.1726,0.1724,0,0,0,0,0,0,0,0,0.1993,0.1989,0.2045,0.2039,0.2032,0.19,0.1868,0.1836,0.1821,0.1889,0.1825,0.1827,0.1813,0.1803,0.1749,0.1674,0.1671,0.1725,0.1723,0.1721,0.1719,0,0,0,0,0,0,0,0.1999,0.1994,0.201,0.2043,0.2035,0.1913,0.1906,0.1859,0.1838,0.1884,0.188,0.1875,0.1809,0.1754,0.1748,0.167,0.1726,0.1721,0.1719,0.1717,0.1662,0.1663,0,0,0,0,0,0,0.2056,0.2001,0.2016,0.2006,0.2027,0.1915,0.1906,0.1932,0.1836,0.1825,0.1874,0.1872,0.1761,0.1753,0.1745,0.1802,0.1721,0.1716,0.1714,0.166,0.1662,0.1663,0,0,0,0,0,0,0.2057,0.2061,0.2024,0.2004,0.1993,0.1917,0.1944,0.1928,0.1914,0.183,0.1819,0.1884,0.1762,0.1751,0.173,0.1794,0.1714,0.171,0.1659,0.1661,0.1663,0.1829,0,0,0,0,0,0,0.2057,0.2062,0.208,0.201,0.1997,0.1993,0.1943,0.1923,0.1911,0.1907,0.1834,0.1825,0.1763,0.1738,0.1726,0.1786,0.1706,0.1657,0.166,0.1662,0.1822,0.1837,0.1849,0,0,0,0,0,0.2057,0.209,0.2083,0.2083,0.2032,0.1995,0.1976,0.1917,0.1911,0.1909,0.1858,0.1829,0.1747,0.1734,0.172,0.178,0.1656,0.1659,0.1662,0.1816,0.1834,0.1849,0,0,0,0,0,0,0.2075,0.2083,0.2074,0.2106,0.2072,0.1986,0.1976,0.1945,0.1894,0.1908,0.1828,0.1815,0.1813,0.177,0.1759,0.177,0.1704,0.1704,0.1826,0.1842,0.1856,0.1908,0.1702,0,0,0,0,0,0.2094,0.2127,0.2103,0.2123,0.2125,0.2058,0.2033,0.2009,0.1962,0.1942,0.1894,0.1849,0.1803,0.1806,0.1744,0.1756,0.1789,0.179,0.1803,0.1815,0.1847,0.1953,0.1982,0.1673,0.1673,0.1673,0,0,0.2099,0.2112,0.2124,0.2128,0.2098,0.2089,0.2047,0.2046,0.2036,0.1945,0.1928,0.1881,0.1807,0.1804,0.1806,0.1792,0.1922,0.1819,0.1831,0.1856,0.196,0.1991,0.2018,0.1675,0.1675,0.1675,0,0,0.2122,0.2155,0.2183,0.2171,0.2166,0.2133,0.2156,0.2112,0.2101,0.2081,0.2013,0.2019,0.1944,0.1917,0.189,0.1948,0.197,0.1938,0.2079,0.2182,0.221,0.2234,0.2338,0.2371,0.1973,0.1973,0.1973,0,0.2122,0.216,0.2176,0.2191,0.2185,0.2173,0.2182,0.216,0.2111,0.2124,0.211,0.2053,0.2,0.2013,0.2038,0.1986,0.2054,0.2026,0.2207,0.2232,0.2255,0.2354,0.2389,0.1981,0.198,0.1979,0.1979,0,0.2158,0.2175,0.2197,0.222,0.222,0.2233,0.223,0.2243,0.225,0.2234,0.2268,0.2211,0.2198,0.2188,0.2131,0.2258,0.2258,0.2196,0.2181,0.2297,0.2393,0.2426,0.1993,0.199,0.1988,0.1986,0,0,0.2182,0.2213,0.2218,0.2223,0.2244,0.2248,0.228,0.23,0.2344,0.2351,0.2414,0.2379,0.2406,0.2378,0.234,0.2444,0.266,0.2422,0.2424,0.2554,0.2928,0.2771,0.2791,0.2657,0.2662,0.2667,0.294,0,0.2193,0.222,0.2243,0.2257,0.2266,0.2289,0.2318,0.235,0.2385,0.2446,0.2479,0.2503,0.2462,0.249,0.2596,0.2608,0.2752,0.2593,0.277,0.2776,0.2646,0.2824,0.2533,0.2738,0.2972,0.2977,0.2981,0,0.2215,0.2226,0.2252,0.2281,0.2298,0.2321,0.2399,0.2422,0.2516,0.2556,0.2646,0.2658,0.2783,0.2737,0.294,0.2854,0.2936,0.2971,0.2981,0.2801,0.2679,0.2651,0.2788,0.3035,0.3031,0.3027,0.3023,0,0.221,0.2233,0.2258,0.2263,0.2303,0.2348,0.2386,0.247,0.2524,0.2648,0.272,0.2849,0.2926,0.3061,0.3129,0.3077,0.3363,0.3278,0.3231,0.322,0.2985,0.2942,0.349,0.349,0.3489,0.3488,0.3488,0,0.2208,0.2226,0.2263,0.227,0.2334,0.2367,0.2463,0.2517,0.263,0.2707,0.2795,0.2891,0.3025,0.3166,0.3236,0.3339,0.3461,0.3313,0.3299,0.303,0.299,0.3229,0.3195,0.3499,0.3496,0.3494,0.3493,0,0.2212,0.2224,0.2256,0.2306,0.2332,0.2392,0.2501,0.2557,0.2667,0.2779,0.283,0.2991,0.3162,0.3278,0.3484,0.3448,0.3557,0.3567,0.3237,0.3178,0.3333,0.3305,0.3574,0.3571,0.3569,0.3567,0.3565,0,0.2218,0.2229,0.2289,0.2309,0.2344,0.2424,0.247,0.2576,0.263,0.2816,0.2866,0.3073,0.3177,0.3414,0.3403,0.3518,0.3595,0.3286,0.3104,0.3393,0.3353,0.3328,0.3303,0.289,0.2882,0.2877,0.2872,0,0.2222,0.2257,0.2278,0.2322,0.237,0.2423,0.2495,0.2549,0.2659,0.2767,0.2904,0.3012,0.3168,0.3125,0.322,0.323,0.3226,0.3167,0.3624,0.2865,0.2756,0.2712,0.271,0.282,0.2826,0.2829,0.2832,0.2834,0.2233,0.2257,0.2279,0.233,0.2367,0.2401,0.2431,0.2502,0.2605,0.2669,0.2798,0.2823,0.2855,0.2833,0.2812,0.2772,0.298,0.2838,0.2854,0.2877,0.2701,0.2587,0.2591,0.2595,0.2598,0.2601,0.2603,0,0.2211,0.2237,0.2272,0.2308,0.2319,0.2366,0.2415,0.241,0.2487,0.2492,0.2549,0.231,0.2313,0.2381,0.2231,0.2235,0.22,0.216,0.209,0.2142,0.2189,0.1974,0.1675,0.1673,0.167,0.1668,0,0,0.2196,0.2214,0.2234,0.2244,0.2267,0.2259,0.2274,0.2269,0.2252,0.2134,0.2047,0.213,0.2249,0.1897,0.1882,0.1758,0.1929,0.1688,0.243,0.2396,0.2439,0.2577,0.2306,0,0,0,0,0]},{"header":{"parameterUnit":"m.s-1","parameterCategory":2,"la1":30.2991,"la2":30.254,"lo1":-89.0895,"lo2":-89.0444,"dy":0.0017,"dx":0.0017,"nx":28,"ny":28,"refTime":"2024-05-28T09:00:00:Z","depth":"2","parameterNumber":3,"parameterNumberName":"V-component_of_CURRENTS"},"data":[0,0,0,0,0,0,0,0,0,0,0,0,0,0,0,0,0,0,0,0,0,0,0,0,0,0,0,0,0,0,0,0,0,0,0,0,0,0,0,0,0,0,0,0,0,0,0,0,0,0,0,0,0,0,0,0,0,0,-0.0441,-0.0443,0,-0.0603,-0.0604,-0.0605,-0.0658,-0.0658,-0.0658,-0.0659,-0.077,-0.0773,-0.0776,0,0,0,0,0,0,0,0,0,0,0,0,0,-0.0222,-0.0224,-0.0441,-0.0444,-0.0447,-0.0602,-0.0604,-0.0605,-0.0658,-0.0658,-0.0659,-0.0659,-0.0769,-0.0773,-0.0776,0,0,0,0,0,0,0,0,0,0,0,0,0,-0.0333,-0.0225,-0.044,-0.05,-0.0508,-0.0602,-0.0604,-0.0605,-0.0658,-0.0658,-0.0659,-0.0659,-0.0768,-0.0772,-0.0776,-0.0792,0,0,-0.0789,-0.079,0,0,0,0,0,0,0,0,-0.0326,-0.0339,-0.0488,-0.0496,-0.0505,-0.062,-0.0568,-0.0669,-0.0658,-0.0589,-0.0659,-0.0659,-0.0722,-0.073,-0.0745,-0.0798,-0.0802,-0.0789,-0.0791,-0.0793,-0.0794,0,0,0,0,0,0,0,-0.0318,-0.0333,-0.0494,-0.0492,-0.0502,-0.0535,-0.0549,-0.0587,-0.0642,-0.0595,-0.0602,-0.0637,-0.0725,-0.0741,-0.0748,-0.0804,-0.0789,-0.0792,-0.0795,-0.0797,-0.091,-0.0911,0,0,0,0,0,0,-0.0318,-0.0326,-0.0489,-0.05,-0.0427,-0.0539,-0.0555,-0.0574,-0.0643,-0.0657,-0.0637,-0.064,-0.0734,-0.0743,-0.0752,-0.0794,-0.0793,-0.0797,-0.0799,-0.091,-0.091,-0.0911,0,0,0,0,0,0,-0.0312,-0.033,-0.0482,-0.0426,-0.0449,-0.0543,-0.0564,-0.0577,-0.061,-0.0677,-0.0688,-0.0659,-0.0734,-0.0746,-0.0789,-0.0798,-0.0799,-0.0802,-0.0909,-0.091,-0.0911,-0.0865,0,0,0,0,0,0,-0.0305,-0.0326,-0.0334,-0.0425,-0.0453,-0.0548,-0.0565,-0.058,-0.0635,-0.064,-0.07,-0.071,-0.0736,-0.0783,-0.0793,-0.0803,-0.0806,-0.0908,-0.0909,-0.091,-0.0866,-0.0864,-0.0863,0,0,0,0,0,-0.0296,-0.0314,-0.0332,-0.0353,-0.0461,-0.055,-0.0565,-0.0627,-0.0636,-0.0654,-0.0685,-0.0709,-0.0797,-0.0786,-0.0798,-0.081,-0.0908,-0.0909,-0.091,-0.0867,-0.0865,-0.0863,0,0,0,0,0,0,-0.0231,-0.0325,-0.0346,-0.0393,-0.0469,-0.0563,-0.0591,-0.0632,-0.0671,-0.0668,-0.0715,-0.0727,-0.0766,-0.0798,-0.0784,-0.0847,-0.0858,-0.0861,-0.082,-0.0819,-0.0818,-0.0756,-0.0809,0,0,0,0,0,-0.0219,-0.0248,-0.0349,-0.0386,-0.042,-0.0501,-0.0543,-0.0587,-0.0645,-0.0663,-0.0706,-0.0746,-0.0779,-0.0806,-0.084,-0.0877,-0.0849,-0.0894,-0.0893,-0.0891,-0.085,-0.0812,-0.0801,-0.0915,-0.0915,-0.0915,0,0,-0.0207,-0.0263,-0.0281,-0.0373,-0.0428,-0.0482,-0.0524,-0.0591,-0.0624,-0.0668,-0.0707,-0.0742,-0.0787,-0.0822,-0.0843,-0.0851,-0.0849,-0.0893,-0.0891,-0.085,-0.0812,-0.08,-0.079,-0.0916,-0.0916,-0.0916,0,0,-0.0217,-0.0243,-0.0279,-0.0331,-0.0425,-0.0471,-0.0492,-0.0585,-0.0609,-0.0661,-0.069,-0.0718,-0.0793,-0.0811,-0.0832,-0.0845,-0.0838,-0.0878,-0.0825,-0.079,-0.0779,-0.0768,-0.0726,-0.0713,-0.0883,-0.0883,-0.0882,0,-0.0201,-0.0255,-0.0306,-0.0356,-0.0388,-0.0464,-0.0501,-0.0544,-0.0637,-0.0636,-0.0668,-0.0723,-0.0777,-0.0784,-0.0794,-0.0837,-0.0809,-0.0827,-0.0783,-0.0772,-0.0762,-0.0721,-0.0706,-0.0881,-0.0881,-0.0881,-0.0881,0,-0.0243,-0.0281,-0.0305,-0.0375,-0.0409,-0.0456,-0.0518,-0.0544,-0.0577,-0.0612,-0.0626,-0.0678,-0.0694,-0.0741,-0.0775,-0.0744,-0.0744,-0.0778,-0.0774,-0.0747,-0.0707,-0.0693,-0.0878,-0.0878,-0.0879,-0.0879,0,0,-0.0217,-0.0315,-0.032,-0.0335,-0.0413,-0.044,-0.0469,-0.0506,-0.0486,-0.0561,-0.0523,-0.0603,-0.0601,-0.0621,-0.0666,-0.0655,-0.0589,-0.0683,-0.0683,-0.0617,-0.049,-0.0572,-0.0565,-0.061,-0.0607,-0.0605,-0.0492,0,-0.0234,-0.0305,-0.0344,-0.0376,-0.0406,-0.0435,-0.0436,-0.0462,-0.0477,-0.0457,-0.0491,-0.0475,-0.0566,-0.0546,-0.0553,-0.0569,-0.0546,-0.0615,-0.0546,-0.0543,-0.06,-0.0549,-0.0533,-0.0438,-0.0478,-0.0475,-0.0474,0,-0.0259,-0.0295,-0.0332,-0.0342,-0.0348,-0.0354,-0.0313,-0.0328,-0.0315,-0.0314,-0.0303,-0.0319,-0.0306,-0.0378,-0.0368,-0.0403,-0.0426,-0.0451,-0.0448,-0.0518,-0.0597,-0.0474,-0.041,-0.0449,-0.0451,-0.0453,-0.0454,0,-0.0206,-0.0273,-0.0283,-0.0295,-0.0326,-0.0297,-0.0287,-0.0271,-0.0227,-0.0188,-0.013,-0.0146,-0.0101,-0.0143,-0.0222,-0.0268,-0.02,-0.0273,-0.0363,-0.0369,-0.0335,-0.0344,-0.0231,-0.0231,-0.0231,-0.0232,-0.0232,0,-0.0207,-0.0206,-0.0246,-0.0249,-0.0186,-0.022,-0.0129,-0.0123,-0.0062,0.0024,-0.0023,0.0057,-0.0033,-0.0029,-0.0129,-0.0194,-0.0122,-0.0314,-0.0335,-0.0327,-0.0336,-0.0336,-0.035,-0.0228,-0.0228,-0.0229,-0.023,0,-0.0146,-0.0201,-0.0184,-0.0186,-0.0166,-0.0101,-0.0014,0.0051,0.0091,0.0215,0.0252,0.0261,0.0257,0.0145,0.0098,-0.0052,-0.0125,-0.0166,-0.0155,-0.018,-0.0336,-0.0349,-0.0232,-0.0234,-0.0236,-0.0237,-0.0238,0,-0.0125,-0.0122,-0.0095,-0.0056,-0.0045,0.0038,0.0105,0.0143,0.0219,0.0338,0.0414,0.0453,0.0477,0.0354,0.0126,-0.0036,-0.0079,-0.016,-0.0272,-0.0298,-0.033,-0.0341,-0.0352,-0.0197,-0.0198,-0.0199,-0.0199,0,-0.0046,-0.0031,-0.0012,0.0061,0.0132,0.0221,0.0313,0.0398,0.046,0.0572,0.0703,0.0741,0.0599,0.0428,0.0157,0.002,-0.015,-0.0182,-0.0145,-0.024,-0.0268,-0.03,-0.031,-0.0203,-0.0203,-0.0203,-0.0202,-0.0202,0.0051,0.0097,0.0117,0.0199,0.0281,0.0392,0.0486,0.0588,0.0741,0.0892,0.0899,0.0947,0.0711,0.0368,0.0127,-0.0159,-0.0166,-0.0282,-0.0277,-0.0273,-0.033,-0.0363,-0.0325,-0.0325,-0.0325,-0.0325,-0.0325,0,0.0139,0.0174,0.025,0.0338,0.0439,0.0464,0.0613,0.0697,0.0885,0.101,0.1116,0.0917,0.0708,0.0433,0.0003,-0.0266,-0.0273,-0.0343,-0.0288,-0.0283,-0.0278,-0.0334,-0.033,-0.033,-0.0331,-0.0331,0,0,0.0183,0.0249,0.0275,0.0446,0.0529,0.0668,0.0759,0.0889,0.0987,0.1131,0.1167,0.1146,0.0792,0.0488,0.0148,-0.009,-0.0128,-0.014,-0.0113,-0.0003,0.0005,-0.0225,-0.0304,0,0,0,0,0]}],[{"header":{"parameterUnit":"m.s-1","parameterCategory":2,"la1":30.2991,"la2":30.254,"lo1":-89.0895,"lo2":-89.0444,"dy":0.0017,"dx":0.0017,"nx":28,"ny":28,"refTime":"2024-05-28T09:00:00:Z","depth":"4","parameterNumber":2,"parameterNumberName":"U-component_of_CURRENTS"},"data":[0,0,0,0,0,0,0,0,0,0,0,0,0,0,0,0,0,0,0,0,0,0,0,0,0,0,0,0,0,0,0,0,0,0,0,0,0,0,0,0,0,0,0,0,0,0,0,0,0,0,0,0,0,0,0,0,0,0,0.04,0.0399,0,0.0389,0.0389,0.0389,0.0416,0.0416,0.0417,0.0418,0.0614,0.0618,0.0623,0,0,0,0,0,0,0,0,0,0,0,0,0,0.0489,0.0487,0.04,0.0399,0.0399,0.0389,0.0389,0.0389,0.0415,0.0416,0.0417,0.0418,0.0613,0.0618,0.0623,0,0,0,0,0,0,0,0,0,0,0,0,0,0.0461,0.0486,0.04,0.0411,0.0412,0.0389,0.0389,0.0389,0.0415,0.0416,0.0418,0.0419,0.0611,0.0617,0.0624,0.0639,0,0,0.0644,0.0647,0,0,0,0,0,0,0,0,0.0462,0.0458,0.041,0.0411,0.0412,0.0405,0.0492,0.0483,0.0415,0.0414,0.0418,0.0419,0.0562,0.0573,0.0565,0.0649,0.0657,0.0645,0.0649,0.0652,0.0654,0,0,0,0,0,0,0,0.0464,0.0459,0.0395,0.041,0.0411,0.0433,0.043,0.049,0.0485,0.0414,0.0416,0.0415,0.0565,0.0558,0.0571,0.066,0.0645,0.0651,0.0655,0.0657,0.0874,0.0876,0,0,0,0,0,0,0.0461,0.046,0.0396,0.0395,0.0441,0.043,0.0427,0.0406,0.048,0.0491,0.0413,0.0416,0.0546,0.0563,0.0578,0.0725,0.0652,0.0658,0.0662,0.0872,0.0875,0.0876,0,0,0,0,0,0,0.0463,0.0455,0.0396,0.0429,0.0423,0.0427,0.0403,0.0405,0.0424,0.0477,0.0492,0.0435,0.0548,0.0569,0.0668,0.0728,0.0661,0.0667,0.087,0.0873,0.0876,0.094,0,0,0,0,0,0,0.0465,0.0455,0.0452,0.0428,0.0421,0.0385,0.0402,0.0404,0.042,0.0424,0.05,0.0517,0.0551,0.0658,0.0675,0.0736,0.0672,0.0868,0.0872,0.0875,0.0936,0.0945,0.0952,0,0,0,0,0,0.0468,0.0447,0.0452,0.0445,0.0412,0.0385,0.0383,0.0392,0.042,0.0418,0.0496,0.0516,0.0691,0.0665,0.0684,0.0749,0.0866,0.0871,0.0874,0.0932,0.0943,0.0952,0,0,0,0,0,0,0.046,0.0447,0.0452,0.0422,0.041,0.039,0.039,0.0405,0.0457,0.0486,0.0544,0.0567,0.0681,0.0696,0.0666,0.0818,0.078,0.0788,0.0818,0.0828,0.0836,0.0856,0.0678,0,0,0,0,0,0.0461,0.0454,0.0436,0.0411,0.0409,0.0409,0.0408,0.0417,0.045,0.0473,0.0536,0.0614,0.0704,0.0751,0.0817,0.0898,0.0885,0.0948,0.0957,0.0964,0.0991,0.1018,0.1031,0.089,0.089,0.089,0,0,0.0455,0.0441,0.0441,0.0412,0.0407,0.0418,0.0411,0.0411,0.0451,0.0493,0.0586,0.0654,0.0733,0.0833,0.0883,0.0859,0.0987,0.0969,0.0975,0.0999,0.1023,0.1037,0.1049,0.0892,0.0892,0.0891,0,0,0.0432,0.0422,0.0419,0.042,0.0419,0.0427,0.0435,0.0445,0.0481,0.056,0.0626,0.0726,0.083,0.0907,0.096,0.105,0.1036,0.1072,0.1133,0.1158,0.117,0.118,0.1134,0.114,0.1069,0.1069,0.107,0,0.0444,0.0419,0.0411,0.0413,0.0437,0.044,0.0466,0.049,0.0543,0.0596,0.0601,0.08,0.0869,0.1017,0.1067,0.1074,0.106,0.1091,0.1169,0.1179,0.1189,0.1139,0.1145,0.1073,0.1073,0.1072,0.1072,0,0.0414,0.0422,0.0415,0.044,0.0462,0.0472,0.0517,0.0558,0.0615,0.0658,0.0804,0.0891,0.1022,0.1051,0.1106,0.123,0.1185,0.1179,0.1141,0.1207,0.115,0.1155,0.1078,0.1077,0.1076,0.1075,0,0,0.039,0.0405,0.0409,0.0442,0.0491,0.0501,0.0582,0.0654,0.0719,0.0794,0.09,0.1066,0.1129,0.1196,0.1264,0.1292,0.1348,0.1284,0.1284,0.1234,0.1358,0.1362,0.1366,0.136,0.1362,0.1364,0.1272,0,0.0387,0.0402,0.0427,0.0485,0.051,0.0571,0.065,0.0728,0.0795,0.089,0.0999,0.1141,0.1179,0.1279,0.1319,0.1365,0.1373,0.1371,0.1307,0.1304,0.1299,0.1379,0.1372,0.1275,0.1276,0.1277,0.1278,0,0.0361,0.0381,0.0437,0.053,0.0552,0.0615,0.0744,0.082,0.0948,0.1017,0.1152,0.1232,0.1382,0.1373,0.1447,0.1448,0.1434,0.1411,0.1407,0.1405,0.1322,0.1209,0.1286,0.1285,0.1285,0.1284,0.1284,0,0.0341,0.0397,0.0453,0.0482,0.0583,0.0661,0.075,0.0874,0.0962,0.1136,0.1205,0.1349,0.1467,0.1469,0.1522,0.1486,0.1535,0.1457,0.1415,0.1409,0.1396,0.1387,0.1479,0.1479,0.1479,0.1479,0.148,0,0.0331,0.037,0.0455,0.0486,0.0585,0.0686,0.0814,0.0913,0.1072,0.117,0.1313,0.1392,0.1509,0.1562,0.1534,0.153,0.1555,0.1453,0.1419,0.1416,0.1411,0.1395,0.1387,0.1476,0.1477,0.1477,0.1478,0,0.0294,0.0345,0.0404,0.0525,0.0577,0.0666,0.0857,0.0917,0.1103,0.1232,0.1317,0.1473,0.1542,0.1599,0.1614,0.1572,0.1539,0.1524,0.1519,0.1479,0.1354,0.135,0.1395,0.1395,0.1395,0.1395,0.1395,0,0.0278,0.0298,0.0413,0.0453,0.0521,0.0659,0.0729,0.0931,0.0991,0.1239,0.1266,0.1446,0.1523,0.1518,0.159,0.1552,0.1544,0.1511,0.1441,0.14,0.1361,0.1356,0.1352,0.1395,0.1395,0.1395,0.1395,0,0.0237,0.0278,0.0322,0.0391,0.0474,0.0559,0.0687,0.0736,0.0951,0.1109,0.1224,0.1327,0.1409,0.1454,0.1529,0.1474,0.1526,0.151,0.1506,0.1439,0.1401,0.1361,0.1357,0.1396,0.1396,0.1396,0.1396,0,0.0203,0.0214,0.0259,0.0326,0.0393,0.0443,0.0534,0.0624,0.0746,0.1014,0.1033,0.1209,0.1363,0.1412,0.1433,0.1468,0.1388,0.1316,0.132,0.1321,0.1363,0.1308,0.1271,0,0,0,0,0,0.0167,0.0163,0.0187,0.0256,0.0301,0.0361,0.0471,0.0555,0.0742,0.0787,0.0936,0.1011,0.1155,0.1227,0.1237,0.136,0.137,0.1367,0.1281,0.1398,0.1398,0.1467,0,0,0,0,0,0,0.0139,0.0152,0.0155,0.0164,0.0195,0.0258,0.0326,0.0458,0.049,0.0692,0.0745,0.095,0.1055,0.1135,0.1215,0.1246,0.1172,0.149,0.1488,0.1398,0.1398,0.1398,0.1469,0,0,0,0,0]},{"header":{"parameterUnit":"m.s-1","parameterCategory":2,"la1":30.2991,"la2":30.254,"lo1":-89.0895,"lo2":-89.0444,"dy":0.0017,"dx":0.0017,"nx":28,"ny":28,"refTime":"2024-05-28T09:00:00:Z","depth":"4","parameterNumber":3,"parameterNumberName":"V-component_of_CURRENTS"},"data":[0,0,0,0,0,0,0,0,0,0,0,0,0,0,0,0,0,0,0,0,0,0,0,0,0,0,0,0,0,0,0,0,0,0,0,0,0,0,0,0,0,0,0,0,0,0,0,0,0,0,0,0,0,0,0,0,0,0,0.0448,0.0449,0,0.0482,0.0482,0.0482,0.0504,0.0504,0.0505,0.0505,0.0476,0.0475,0.0473,0,0,0,0,0,0,0,0,0,0,0,0,0,0.0311,0.0314,0.0448,0.0449,0.045,0.0482,0.0482,0.0482,0.0504,0.0504,0.0505,0.0505,0.0476,0.0475,0.0473,0,0,0,0,0,0,0,0,0,0,0,0,0,0.0358,0.0315,0.0448,0.0466,0.0468,0.0482,0.0482,0.0482,0.0504,0.0504,0.0505,0.0505,0.0476,0.0475,0.0473,0.0451,0,0,0.0468,0.0467,0,0,0,0,0,0,0,0,0.0355,0.0363,0.0463,0.0465,0.0467,0.0492,0.0423,0.047,0.0503,0.0487,0.0505,0.0506,0.0476,0.0475,0.0477,0.045,0.0449,0.0468,0.0467,0.0466,0.0466,0,0,0,0,0,0,0,0.0352,0.0361,0.0459,0.0464,0.0466,0.0441,0.0449,0.0432,0.0475,0.0489,0.0491,0.0499,0.0477,0.0479,0.0476,0.0448,0.0468,0.0466,0.0465,0.0465,0.036,0.0359,0,0,0,0,0,0,0.0358,0.0359,0.0458,0.046,0.0415,0.0444,0.0453,0.0481,0.0477,0.0478,0.0498,0.05,0.0481,0.0478,0.0475,0.0466,0.0466,0.0465,0.0464,0.0362,0.036,0.0358,0,0,0,0,0,0,0.0356,0.0368,0.0456,0.041,0.042,0.0447,0.0478,0.0481,0.05,0.0485,0.0485,0.0516,0.0482,0.0478,0.0487,0.0465,0.0464,0.0462,0.0364,0.0361,0.0359,0.0437,0,0,0,0,0,0,0.0352,0.0367,0.0396,0.0412,0.0424,0.0473,0.0478,0.0482,0.0504,0.0507,0.0499,0.0496,0.0482,0.049,0.0486,0.0462,0.0461,0.0366,0.0363,0.036,0.0437,0.0437,0.0438,0,0,0,0,0,0.0347,0.0387,0.0398,0.041,0.0462,0.0473,0.0476,0.0493,0.0505,0.0512,0.0521,0.0497,0.0463,0.049,0.0484,0.046,0.0368,0.0364,0.036,0.0436,0.0437,0.0438,0,0,0,0,0,0,0.0343,0.0393,0.0405,0.046,0.0468,0.0478,0.0495,0.0502,0.0515,0.0526,0.051,0.0508,0.0498,0.0463,0.0492,0.041,0.0396,0.0391,0.0455,0.0456,0.0457,0.0457,0.0459,0,0,0,0,0,0.0355,0.0401,0.0424,0.0465,0.0474,0.0485,0.0497,0.0507,0.0517,0.0525,0.0522,0.0498,0.0471,0.0459,0.0435,0.0411,0.035,0.0373,0.0374,0.0376,0.0366,0.0255,0.0246,0.0345,0.0345,0.0345,0,0,0.0369,0.0399,0.0428,0.0467,0.0478,0.0493,0.0493,0.0517,0.0528,0.0517,0.0539,0.0517,0.0468,0.0446,0.0431,0.0419,0.0318,0.0371,0.0373,0.0362,0.025,0.0241,0.0232,0.0342,0.0343,0.0343,0,0,0.0398,0.0439,0.0479,0.0487,0.051,0.0513,0.0523,0.054,0.0548,0.0562,0.0546,0.0522,0.0492,0.045,0.0422,0.0403,0.0334,0.0374,0.0376,0.027,0.0261,0.0253,0.0188,0.0173,0.0364,0.0365,0.0365,0,0.0408,0.0463,0.0485,0.0509,0.0522,0.0524,0.0547,0.0549,0.0567,0.0562,0.0575,0.0509,0.0486,0.0427,0.0423,0.0407,0.0345,0.0392,0.0274,0.0264,0.0254,0.0189,0.0172,0.0368,0.0367,0.0367,0.0367,0,0.0455,0.0495,0.0512,0.0548,0.0561,0.058,0.0584,0.0588,0.0596,0.0589,0.0557,0.0528,0.0478,0.0452,0.0443,0.0349,0.033,0.0302,0.0285,0.025,0.0183,0.0164,0.0372,0.0371,0.037,0.037,0,0,0.0481,0.0537,0.0544,0.0559,0.0585,0.0594,0.0604,0.06,0.0593,0.0586,0.056,0.0515,0.0491,0.0454,0.0418,0.0329,0.0232,0.0291,0.0284,0.025,0.0015,0.0072,0.0056,0.0181,0.0177,0.0174,0.0007,0,0.0505,0.0559,0.0582,0.0615,0.0634,0.0632,0.064,0.0633,0.0617,0.0589,0.0532,0.0503,0.0491,0.047,0.038,0.027,0.0179,0.0281,0.0032,0.0026,0.0099,0.0035,0.0163,-0.0007,-0.0012,-0.0015,-0.0017,0,0.0539,0.0567,0.0621,0.0642,0.0651,0.0679,0.067,0.0678,0.063,0.0614,0.056,0.0512,0.0415,0.04,0.0187,0.0251,0.0137,0.0046,0.0036,0.0044,0.0045,0.0022,-0.0053,-0.005,-0.0048,-0.0045,-0.0043,0,0.054,0.0587,0.0633,0.0644,0.0674,0.0698,0.0718,0.0697,0.0702,0.0636,0.061,0.0488,0.0431,0.0264,0.0113,0.0129,-0.0135,-0.0142,-0.0203,-0.0199,-0.0229,-0.0219,-0.0326,-0.0326,-0.0326,-0.0325,-0.0325,0,0.0553,0.058,0.0647,0.0669,0.0714,0.0733,0.0769,0.0756,0.0743,0.0727,0.064,0.0576,0.0386,0.0228,0.0084,-0.0103,-0.0163,-0.0218,-0.0253,-0.0189,-0.0174,-0.0241,-0.0229,-0.0332,-0.033,-0.0329,-0.0328,0,0.0544,0.0594,0.064,0.0697,0.0729,0.0769,0.0844,0.0844,0.0832,0.08,0.0782,0.0626,0.0426,0.0239,-0.0041,-0.0125,-0.0318,-0.0376,-0.0272,-0.0295,-0.0304,-0.0286,-0.047,-0.047,-0.047,-0.0469,-0.0469,0,0.0545,0.0575,0.0668,0.0716,0.076,0.0832,0.0875,0.0903,0.0898,0.082,0.0783,0.0605,0.0482,0.0135,-0.0052,-0.0319,-0.0348,-0.0436,-0.039,-0.0311,-0.0327,-0.0309,-0.0293,-0.0469,-0.0469,-0.0469,-0.0469,0,0.0529,0.0578,0.0618,0.0718,0.0796,0.0868,0.093,0.0924,0.0918,0.0908,0.0761,0.0596,0.0373,0.013,-0.0066,-0.0259,-0.037,-0.0434,-0.0436,-0.0394,-0.0312,-0.0324,-0.0307,-0.0468,-0.0468,-0.0468,-0.0468,0,0.0519,0.0551,0.0623,0.0704,0.0798,0.0863,0.0901,0.0888,0.0895,0.0808,0.0754,0.0537,0.0417,0.0158,-0.0031,-0.0196,-0.0235,-0.0279,-0.029,-0.0293,-0.017,-0.0035,-0.0157,0,0,0,0,0,0.05,0.054,0.0603,0.0693,0.0775,0.0846,0.0904,0.0923,0.0906,0.0809,0.0792,0.059,0.0318,0.0185,0.0024,-0.0028,-0.0263,-0.0218,-0.0319,-0.0463,-0.0464,-0.0343,0,0,0,0,0,0,0.0496,0.0553,0.0585,0.0662,0.0719,0.0817,0.0861,0.0859,0.0801,0.0761,0.0605,0.0571,0.0291,0.0407,0.0024,-0.0023,-0.0103,-0.0335,-0.0338,-0.0463,-0.0464,-0.0464,-0.034,0,0,0,0,0]}]]